• In Latvia
  • List of Countries
  • For 7 days
  • Water Temperature
  • Satellite Maps
  • Weather Map
  • Weather Widgets
  • user-avatar
    Login

    Hourly Weather Middlesbrough

    Today, 26 September, Tuesday

    Time Temperature Precipitation Wind Pressure Humidity
    00:00 +14°C° 0 mm 1 mps 766 mmHg 96%
    01:00 +14°C° 0 mm 1 mps 766 mmHg 96%
    02:00 +14°C° 0 mm 1 mps 766 mmHg 96%
    03:00 +13°C° 0 mm 1 mps 766 mmHg 97%
    04:00 +13°C° 0 mm 1 mps 766 mmHg 96%
    05:00 +13°C° 0 mm 1 mps 766 mmHg 96%
    06:00 +13°C° 0 mm 1 mps 766 mmHg 95%
    07:00 +14°C° 0 mm 1 mps 766 mmHg 92%
    08:00 +15°C° 0 mm 1 mps 766 mmHg 89%
    09:00 +16°C° 0 mm 1 mps 766 mmHg 86%
    10:00 +16°C° 0 mm 2 mps 766 mmHg 83%
    11:00 +17°C° 0 mm 2 mps 766 mmHg 80%
    12:00 +17°C° 0 mm 2 mps 766 mmHg 78%
    13:00 +17°C° 0 mm 3 mps 766 mmHg 78%
    14:00 +17°C° 0 mm 3 mps 766 mmHg 79%
    15:00 +18°C° 0 mm 3 mps 766 mmHg 79%
    16:00 +17°C° 0 mm 3 mps 766 mmHg 83%
    17:00 +16°C° 0 mm 3 mps 766 mmHg 87%
    18:00 +14°C° 0 mm 3 mps 766 mmHg 90%
    19:00 +14°C° 0 mm 3 mps 766 mmHg 92%
    20:00 +13°C° 0 mm 3 mps 766 mmHg 93%
    21:00 +13°C° 0 mm 3 mps 766 mmHg 95%
    22:00 +12°C° 0 mm 3 mps 766 mmHg 95%
    23:00 +12°C° 0 mm 3 mps 766 mmHg 96%

    Tomorrow, 27 September, Wednesday

    Time Temperature Precipitation Wind Pressure Humidity
    00:00 +12°C° 0 mm 3 mps 765 mmHg 96%
    01:00 +12°C° 0 mm 3 mps 765 mmHg 96%
    02:00 +12°C° 0 mm 3 mps 765 mmHg 96%
    03:00 +12°C° 0 mm 3 mps 765 mmHg 97%
    04:00 +12°C° 0 mm 3 mps 765 mmHg 96%
    05:00 +13°C° 0 mm 4 mps 765 mmHg 96%
    06:00 +13°C° 0 mm 4 mps 764 mmHg 96%
    07:00 +13°C° 0 mm 4 mps 764 mmHg 93%
    08:00 +14°C° 0 mm 4 mps 764 mmHg 91%
    09:00 +14°C° 0 mm 5 mps 764 mmHg 89%
    10:00 +15°C° 0 mm 5 mps 764 mmHg 85%
    11:00 +16°C° 0 mm 5 mps 763 mmHg 81%
    12:00 +17°C° 0 mm 5 mps 763 mmHg 77%
    13:00 +17°C° 0 mm 5 mps 763 mmHg 76%
    14:00 +17°C° 0 mm 6 mps 762 mmHg 75%
    15:00 +19°C° 0 mm 6 mps 762 mmHg 74%
    16:00 +17°C° 0 mm 6 mps 762 mmHg 77%
    17:00 +16°C° 0 mm 6 mps 762 mmHg 81%
    18:00 +15°C° 0 mm 6 mps 761 mmHg 84%
    19:00 +15°C° 0.4 mm 6 mps 761 mmHg 86%
    20:00 +15°C° 0.4 mm 6 mps 761 mmHg 88%
    21:00 +15°C° 0.4 mm 6 mps 761 mmHg 90%
    22:00 +15°C° 0.4 mm 6 mps 761 mmHg 90%
    23:00 +15°C° 0.4 mm 6 mps 761 mmHg 90%

    Day after tomorrow, 28 September, Thursday

    Time Temperature Precipitation Wind Pressure Humidity
    00:00 +15°C° 0.4 mm 6 mps 761 mmHg 90%
    01:00 +15°C° 0.3 mm 5 mps 761 mmHg 90%
    02:00 +15°C° 0.3 mm 5 mps 760 mmHg 91%
    03:00 +14°C° 0.3 mm 5 mps 760 mmHg 92%
    04:00 +14°C° 0.5 mm 5 mps 760 mmHg 92%
    05:00 +14°C° 0.5 mm 4 mps 761 mmHg 93%
    06:00 +15°C° 0.5 mm 4 mps 761 mmHg 94%
    07:00 +15°C° 0.3 mm 4 mps 761 mmHg 93%
    08:00 +15°C° 0.3 mm 4 mps 761 mmHg 93%
    09:00 +16°C° 0.3 mm 3 mps 762 mmHg 92%
    10:00 +16°C° 0.1 mm 3 mps 762 mmHg 91%
    11:00 +17°C° 0.1 mm 3 mps 762 mmHg 89%
    12:00 +17°C° 0.1 mm 3 mps 762 mmHg 87%
    13:00 +18°C° 0 mm 3 mps 762 mmHg 85%
    14:00 +18°C° 0 mm 3 mps 762 mmHg 82%
    15:00 +18°C° 0 mm 3 mps 762 mmHg 79%
    16:00 +17°C° 0 mm 3 mps 762 mmHg 81%
    17:00 +16°C° 0 mm 3 mps 762 mmHg 83%
    18:00 +14°C° 0 mm 3 mps 763 mmHg 85%
    19:00 +13°C° 0 mm 3 mps 763 mmHg 83%
    20:00 +13°C° 0 mm 2 mps 763 mmHg 80%
    21:00 +12°C° 0 mm 2 mps 763 mmHg 78%
    22:00 +12°C° 0 mm 2 mps 763 mmHg 79%
    23:00 +11°C° 0 mm 3 mps 763 mmHg 80%

    29 September, Friday

    Time Temperature Precipitation Wind Pressure Humidity
    00:00 +11°C° 0 mm 3 mps 763 mmHg 81%
    01:00 +11°C° 0 mm 3 mps 762 mmHg 82%
    02:00 +11°C° 0 mm 4 mps 762 mmHg 83%
    03:00 +11°C° 0 mm 4 mps 762 mmHg 84%
    04:00 +11°C° 0 mm 4 mps 762 mmHg 84%
    05:00 +10°C° 0 mm 5 mps 762 mmHg 83%
    06:00 +10°C° 0 mm 5 mps 762 mmHg 83%
    07:00 +12°C° 0 mm 5 mps 761 mmHg 83%
    08:00 +13°C° 0 mm 6 mps 761 mmHg 82%
    09:00 +12°C° 0 mm 7 mps 761 mmHg 82%
    10:00 +14°C° 0.1 mm 6 mps 761 mmHg 82%
    11:00 +15°C° 0.1 mm 6 mps 761 mmHg 81%
    12:00 +15°C° 0.1 mm 6 mps 761 mmHg 81%
    13:00 +15°C° 1.9 mm 6 mps 761 mmHg 85%
    14:00 +15°C° 1.9 mm 6 mps 761 mmHg 88%
    15:00 +14°C° 1.9 mm 5 mps 760 mmHg 92%
    16:00 +14°C° 0.8 mm 5 mps 761 mmHg 92%
    17:00 +14°C° 0.8 mm 4 mps 761 mmHg 91%
    18:00 +13°C° 0.8 mm 3 mps 761 mmHg 91%
    19:00 +13°C° 0.1 mm 3 mps 761 mmHg 89%
    20:00 +12°C° 0.1 mm 3 mps 761 mmHg 88%
    21:00 +13°C° 0.1 mm 2 mps 761 mmHg 86%
    22:00 +13°C° 0.1 mm 2 mps 761 mmHg 87%
    23:00 +12°C° 0.1 mm 2 mps 762 mmHg 88%

    30 September, Saturday

    Time Temperature Precipitation Wind Pressure Humidity
    00:00 +12°C° 0.1 mm 2 mps 762 mmHg 88%
    01:00 +12°C° 0 mm 2 mps 762 mmHg 89%
    02:00 +10°C° 0 mm 2 mps 762 mmHg 90%
    03:00 +10°C° 0 mm 2 mps 762 mmHg 91%
    04:00 +10°C° 0 mm 2 mps 762 mmHg 91%
    05:00 +10°C° 0 mm 2 mps 762 mmHg 91%
    06:00 +9°C° 0 mm 2 mps 763 mmHg 92%
    07:00 +10°C° 0 mm 2 mps 763 mmHg 88%
    08:00 +11°C° 0 mm 3 mps 763 mmHg 84%
    09:00 +12°C° 0 mm 3 mps 763 mmHg 79%
    10:00 +13°C° 0 mm 3 mps 763 mmHg 75%
    11:00 +14°C° 0 mm 3 mps 763 mmHg 70%
    12:00 +16°C° 0 mm 3 mps 763 mmHg 65%
    13:00 +16°C° 0 mm 3 mps 763 mmHg 65%
    14:00 +16°C° 0 mm 3 mps 763 mmHg 65%
    15:00 +16°C° 0 mm 3 mps 763 mmHg 65%
    16:00 +14°C° 0 mm 3 mps 763 mmHg 71%
    17:00 +14°C° 0 mm 2 mps 763 mmHg 76%
    18:00 +12°C° 0 mm 2 mps 763 mmHg 82%
    19:00 +12°C° 0 mm 2 mps 764 mmHg 84%
    20:00 +10°C° 0 mm 2 mps 764 mmHg 86%
    21:00 +9°C° 0 mm 2 mps 764 mmHg 88%
    22:00 +9°C° 0 mm 2 mps 763 mmHg 88%
    23:00 +9°C° 0 mm 2 mps 763 mmHg 89%

    1 October, Sunday

    Time Temperature Precipitation Wind Pressure Humidity
    00:00 +8°C° 0 mm 2 mps 763 mmHg 89%
    01:00 +8°C° 0 mm 2 mps 763 mmHg 89%
    02:00 +8°C° 0 mm 2 mps 763 mmHg 89%
    03:00 +8°C° 0 mm 2 mps 762 mmHg 89%
    04:00 +8°C° 0 mm 2 mps 762 mmHg 89%
    05:00 +8°C° 0 mm 2 mps 762 mmHg 89%
    06:00 +8°C° 0 mm 3 mps 762 mmHg 88%
    07:00 +9°C° 0.1 mm 3 mps 762 mmHg 86%
    08:00 +10°C° 0.1 mm 4 mps 761 mmHg 83%
    09:00 +9°C° 0.1 mm 5 mps 761 mmHg 80%
    10:00 +10°C° 0.2 mm 6 mps 761 mmHg 80%
    11:00 +10°C° 0.2 mm 6 mps 760 mmHg 80%
    12:00 +10°C° 0.2 mm 7 mps 760 mmHg 80%
    13:00 +11°C° 0 mm 7 mps 759 mmHg 79%
    14:00 +11°C° 0 mm 8 mps 759 mmHg 79%
    15:00 +11°C° 0 mm 8 mps 758 mmHg 78%
    16:00 +11°C° 0 mm 9 mps 757 mmHg 80%
    17:00 +11°C° 0 mm 9 mps 757 mmHg 81%
    18:00 +11°C° 0 mm 9 mps 756 mmHg 83%
    19:00 +11°C° 0.1 mm 10 mps 756 mmHg 84%
    20:00 +11°C° 0.1 mm 10 mps 755 mmHg 85%
    21:00 +11°C° 0.1 mm 10 mps 755 mmHg 85%
    22:00 +12°C° 0.1 mm 10 mps 754 mmHg 86%
    23:00 +12°C° 0.1 mm 10 mps 753 mmHg 87%
    Show more